Regional Weather Roundup
Issued by NWS

Home | Current Version | Previous Version | Graphics & Text | Print | Product List | Glossary On
Versions: 1 2 3 4 5 6 7 8 9 10 11 12 13 14 15 16 17 18 19 20 21 22 23 24 25 26 27 28 29 30 31 32 33 34 35 36 37 38 39 40 41 42 43 44 45 46 47 48 49 50
460
ASUS45 KPSR 241210
RWRAZ

ARIZONA HOURLY REGIONAL WEATHER ROUNDUP
NATIONAL WEATHER SERVICE PHOENIX AZ
500 AM MST FRI MAR 24 2017

NOTE: FAIR INDICATES FEW OR NO CLOUDS BELOW 12,000 FEET WITH NO
SIGNIFICANT WEATHER AND/OR OBSTRUCTIONS TO VISIBILITY.

AZZ001>003-036-241300-
NORTHWEST ARIZONA

CITY           SKY/WX    TMP DP  RH WIND       PRES   REMARKS
BULLHEAD CITY  CLEAR     55  32  41 CALM      30.12S
KINGMAN        CLEAR     38  32  79 CALM      30.18R
6HR MIN TEMP:  37; 6HR MAX TEMP:  49;

$$

AZZ004>008-015-016-018-241300-
NORTH CENTRAL ARIZONA

CITY           SKY/WX    TMP DP  RH WIND       PRES   REMARKS
GRAND CANYON   CLEAR     27  26  96 S3        30.19R
6HR MIN TEMP:  26; 6HR MAX TEMP:  33;

WILLIAMS       CLEAR     30  27  86 CALM      30.19R
PRESCOTT       CLEAR     34  30  85 CALM      30.19R
6HR MIN TEMP:  33; 6HR MAX TEMP:  42;

FLAGSTAFF      CLEAR     30  24  78 VRB5      30.16R WCI  25
6HR MIN TEMP:  27; 6HR MAX TEMP:  34;

PAYSON         CLEAR     41  32  70 NW5       30.19R
PAGE           CLEAR     47  32  56 N6        30.10R
6HR MIN TEMP:  46; 6HR MAX TEMP:  50;

$$

AZZ009>014-017-241300-
NORTHEAST ARIZONA

CITY           SKY/WX    TMP DP  RH WIND       PRES   REMARKS
WINSLOW        CLEAR     36  28  73 W9        30.13R WCI  29
6HR MIN TEMP:  36; 6HR MAX TEMP:  44;

SAINT JOHNS    CLEAR     37  28  70 W15       30.11R WCI  28
6HR MIN TEMP:  37; 6HR MAX TEMP:  41; 6HR PCP: TRACE;

WINDOW ROCK    CLEAR     34  26  72 W7        30.06R WCI  28
6HR MIN TEMP:  33; 6HR MAX TEMP:  38; 6HR PCP: TRACE;

SHOW LOW       CLEAR     30  27  86 S12       30.17R WCI  21
$$

AZZ023-241300-
GREATER PHOENIX AREA

CITY           SKY/WX    TMP DP  RH WIND       PRES   REMARKS
PHOENIX        CLEAR     55  41  59 E9        30.12R
6HR MIN TEMP:  54; 6HR MAX TEMP:  64;

BUCKEYE        CLEAR     46  39  76 NW5       30.14R
LUKE AFB       CLEAR     51  42  71 CALM      30.12R
6HR MIN TEMP:  49; 6HR MAX TEMP:  62;

DEER VALLEY    CLEAR     47  40  76 CALM      30.13R
6HR MIN TEMP:  45; 6HR MAX TEMP:  54;

SCOTTSDALE     CLEAR     50  39  66 S3        30.15R
6HR MIN TEMP:  50; 6HR MAX TEMP:  57;

MESA-GATEWAY   CLEAR     48  39  71 SE7       30.14S
$$

AZZ027-028-241300-
SOUTHWEST MARICOPA COUNTY AND PINAL COUNTY

CITY           SKY/WX    TMP DP  RH WIND       PRES   REMARKS
CASA GRANDE    NOT AVBL
GILA BEND      FAIR      51  33  50 S7        30.13R
6HR MIN TEMP:  51; 6HR MAX TEMP:  61;

$$

AZZ503-504-507>509-241300-
SOUTHEAST ARIZONA

CITY           SKY/WX    TMP DP  RH WIND       PRES   REMARKS
TUCSON         CLEAR     46  23  40 S5        30.20R
6HR MIN TEMP:  46; 6HR MAX TEMP:  54;

DAVIS-MONTHAN  CLEAR     44  24  44 SE5       30.18R
6HR MIN TEMP:  44; 6HR MAX TEMP:  53;

NOGALES        CLEAR     37  20  50 CALM      30.20R
6HR MIN TEMP:  36; 6HR MAX TEMP:  44;

SIERRA VISTA   CLEAR     41  25  52 W12       30.20R
6HR MIN TEMP:  39; 6HR MAX TEMP:  46;

DOUGLAS        CLEAR     34  18  52 E5        30.18R WCI  30
6HR MIN TEMP:  32; 6HR MAX TEMP:  47;

SAFFORD        CLEAR     49  33  54 NW16      30.08S
6HR MIN TEMP:  43; 6HR MAX TEMP:  50; 6HR PCP: TRACE;

$$

AZZ020-021-025-026-031-241300-
SOUTHWEST ARIZONA

CITY           SKY/WX    TMP DP  RH WIND       PRES   REMARKS
YUMA           CLEAR     56  42  59 W3        30.14R
6HR MIN TEMP:  56; 6HR MAX TEMP:  62;

$$

CAZ031-033-041-043-047-048-061-241300-
SOUTHERN CALIFORNIA

CITY           SKY/WX    TMP DP  RH WIND       PRES   REMARKS
DOWNTOWN L.A.  PTCLDY    54  48  80 CALM      30.22S
6HR MIN TEMP:  54; 6HR MAX TEMP:  58;

L.A. AIRPORT   PTCLDY    51  48  89 E6        30.22F
6HR MIN TEMP:  50; 6HR MAX TEMP:  57;

SAN DIEGO      PTCLDY    53  44  71 CALM      30.24R
6HR MIN TEMP:  53; 6HR MAX TEMP:  59;

BURBANK        CLEAR     48  42  80 CALM      30.21F
6HR MIN TEMP:  48; 6HR MAX TEMP:  55;

ONTARIO        CLEAR     47  40  76 N3        30.22R
6HR MIN TEMP:  47; 6HR MAX TEMP:  52;

RIVERSIDE      CLEAR     46  42  86 CALM      30.23R
6HR MIN TEMP:  45; 6HR MAX TEMP:  53;

PALM SPRINGS   CLEAR     54  42  64 CALM      30.15S
6HR MIN TEMP:  54; 6HR MAX TEMP:  65;

EL CENTRO NAS  CLEAR     51  36  56 SW6       30.15S
6HR MIN TEMP:  49; 6HR MAX TEMP:  61;

IMPERIAL       CLEAR     51  38  60 CALM      30.13S
6HR MIN TEMP:  50; 6HR MAX TEMP:  58;

BLYTHE         CLEAR     55  41  59 SW3       30.12R
6HR MIN TEMP:  51; 6HR MAX TEMP:  66;

NEEDLES        CLEAR     56  27  32 CALM      30.12R
6HR MIN TEMP:  55; 6HR MAX TEMP:  69;

$$

NVZ020-UTZ003-241300-
SOUTHERN NEVADA-UTAH

CITY           SKY/WX    TMP DP  RH WIND       PRES   REMARKS
LAS VEGAS      CLEAR     53  31  42 CALM      30.14S
6HR MIN TEMP:  53; 6HR MAX TEMP:  60;

SALT LAKE CITY PTCLDY    36  33  89 SE8       30.18R WCI  30
6HR MIN TEMP:  34; 6HR MAX TEMP:  37;

$$

NMZ009-TXZ055-241300-
NEW MEXICO-WEST TEXAS

CITY           SKY/WX    TMP DP  RH WIND       PRES   REMARKS
ALBUQUERQUE    CLOUDY    46  29  51 NW10      29.88R
6HR MIN TEMP:  42; 6HR MAX TEMP:  46;

EL PASO        PTCLDY    50  22  33 W37G53    29.99F
6HR MIN TEMP:  50; 6HR MAX TEMP:  54;

$$


........................KEY........................
SKY/WX - SKY CONDITION/WEATHER
TMP    - TEMPERATURE IN FAHRENHEIT
DP     - DEW POINT IN FAHRENHEIT
RH     - RELATIVE HUMIDITY IN PERCENT
WIND   - DIRECTION AND SPEED IN MILES PER HOUR (MPH)
VRB    - VARIABLE WIND DIRECTION
PRES   - MEAN SEA LEVEL PRESSURE IN INCHES OF MERCURY
         F - FALLING PRESSURE   R - RISING PRESSURE
         S - STEADY PRESSURE
VSB    - VISIBILITY IN MILES
HX     - HEAT INDEX IN FAHRENHEIT
WCI    - WIND CHILL INDEX IN FAHRENHEIT
TC     - TEMPERATURE IN CELSIUS WHICH IS ALSO KNOWN AS
         TEMPERATURE IN CENTIGRADE
AFB    - AIR FORCE BASE
         LUKE AFB IS LUKE AIR FORCE BASE
         DAVIS-MONTHAN IS DAVIS-MONTHAN AIR FORCE BASE
NAS    - NAVAL AIR STATION
         EL CENTRO NAS IS EL CENTRO NAVAL AIR STATION
N/A    - NOT AVAILABLE





USA.gov is the U.S. government's official web portal to all federal, state and local government web resources and services.